Starlink 3297

operational
NORAD ID: 50159 Int'l Des: 2021-125 Owner: SPXS Country: US Constellation: starlink
LEOCIRCULAR

About Starlink 3297

Description loading...

Live Position

Loading 3D Globe...

Upcoming Passes

Altitude History

Altitude vs Time

uPlot chart will show altitude changes over time

Two-Line Element Set

1 50159U 21125D 25258.88785306 -.00000559 00000-0 -17018-4 0 9990
2 50159 53.2186 323.8482 0001284 89.2878 270.8262 15.08842335210069
Epoch: Sep 15, 2025 • Age: 16 hours

Current Status

Altitude 543.7 km
Velocity 7.60 km/s
Sub-Earth Point 45.13°N, 171.21°E
Launch Date Dec 18, 2021
Age 3.7 years
Type internet

Technical Details

Classification Payload
Mass 290.00 kg
Dry Mass 270.00 kg
Total Mass 290.00 kg
Length 0.20 m
Diameter 2.80 m
Span 9.00 m
Shape Box + pan
Manufacturer SPXS
Bus Type Starlink
Phase Status In Orbit
Owner/State SPXS/US

Large Constellations

Loading constellations...